Location: Newark
(39.0622°N, 106.5590°E)
Time: 10:30:23
(UTC+00:00)

Vanguard 2 Rocket - Pass Details

Date: 01 February 2020
Orbit: 554 x 3327 km, 32.9° (Epoch: 19 February)

Event Time Altitude Azimuth Distance (km) Brightness Sun altitude
Rises 01:01:43 0° 262° (W) 3,126 9.2 9.7°
Reaches altitude 10° 01:04:19 10° 245° (WSW) 2,441 8.8 10.1°
Maximum altitude 01:08:33 21° 197° (SSW) 2,192 9.2 10.8°
Drops below altitude 10° 01:14:29 10° 153° (SSE) 3,566 11.2 11.7°
Sets 01:19:22 0° 140° (SE) 5,109 12.4 12.5°
